Time,TemperatureF,DewpointF,PressureIn,WindDirection,WindDirectionDegrees,WindSpeedMPH,WindSpeedGustMPH,Humidity,HourlyPrecipIn,Conditions,Clouds,dailyrainin,SoftwareType,DateUTC
2013-09-13 00:01:00,59.9,0.0,29.99,South,180,1.0,3.0,0,0.00,,CLR,0.00,VWS V13.01,2013-09-13 07:01:00,
2013-09-13 00:06:00,59.9,0.0,29.99,South,171,1.0,4.0,0,0.00,,CLR,0.00,VWS V13.01,2013-09-13 07:06:00,
2013-09-13 00:11:00,59.8,0.0,29.98,South,171,2.0,4.0,0,0.00,,CLR,0.00,VWS V13.01,2013-09-13 07:11:00,
2013-09-13 00:17:00,59.8,0.0,29.99,South,177,2.0,3.0,0,0.00,,CLR,0.00,VWS V13.01,2013-09-13 07:17:00,
2013-09-13 00:22:00,59.7,0.0,29.99,SSE,165,2.0,5.0,0,0.00,,CLR,0.00,VWS V13.01,2013-09-13 07:22:00,
2013-09-13 00:27:00,59.7,0.0,29.99,South,180,2.0,5.0,0,0.00,,CLR,0.00,VWS V13.01,2013-09-13 07:27:00,
2013-09-13 00:32:00,59.6,0.0,29.99,SSE,159,4.0,4.0,0,0.00,,CLR,0.00,VWS V13.01,2013-09-13 07:32:00,
2013-09-13 00:37:00,59.5,0.0,29.99,South,186,0.0,5.0,0,0.00,,CLR,0.00,VWS V13.01,2013-09-13 07:37:00,
2013-09-13 00:42:00,59.5,0.0,29.99,South,186,0.0,5.0,0,0.00,,CLR,0.00,VWS V13.01,2013-09-13 07:42:00,
2013-09-13 00:47:00,59.5,0.0,29.99,South,186,0.0,0.0,0,0.00,,CLR,0.00,VWS V13.01,2013-09-13 07:47:00,
2013-09-13 00:52:00,59.5,0.0,30.00,South,174,0.0,3.0,0,0.00,,CLR,0.00,VWS V13.01,2013-09-13 07:52:00,
2013-09-13 00:57:00,59.5,0.0,30.00,South,174,0.0,3.0,0,0.00,,CLR,0.00,VWS V13.01,2013-09-13 07:57:00,
2013-09-13 01:02:00,59.5,0.0,30.00,South,174,0.0,0.0,0,0.00,,CLR,0.00,VWS V13.01,2013-09-13 08:02:00,
2013-09-13 01:07:00,59.5,0.0,29.99,South,174,0.0,0.0,0,0.00,,CLR,0.00,VWS V13.01,2013-09-13 08:07:00,
2013-09-13 01:12:00,59.5,0.0,30.00,South,174,0.0,0.0,0,0.00,,CLR,0.00,VWS V13.01,2013-09-13 08:12:00,
2013-09-13 01:17:00,59.5,0.0,30.00,South,174,0.0,0.0,0,0.00,,CLR,0.00,VWS V13.01,2013-09-13 08:17:00,
2013-09-13 01:22:00,59.6,0.0,30.00,South,174,0.0,0.0,0,0.00,,CLR,0.00,VWS V13.01,2013-09-13 08:22:00,
2013-09-13 01:27:00,59.6,0.0,30.00,SE,146,1.0,1.0,0,0.00,,CLR,0.00,VWS V13.01,2013-09-13 08:27:00,
2013-09-13 01:33:00,59.6,0.0,30.00,SE,128,1.0,2.0,0,0.00,,CLR,0.00,VWS V13.01,2013-09-13 08:33:00,
2013-09-13 01:38:00,59.6,0.0,30.00,NE,49,1.0,5.0,0,0.00,,CLR,0.00,VWS V13.01,2013-09-13 08:38:00,
2013-09-13 01:43:00,59.5,0.0,30.00,ENE,68,4.0,5.0,0,0.00,,CLR,0.00,VWS V13.01,2013-09-13 08:43:00,
2013-09-13 01:48:00,59.4,0.0,30.00,ENE,63,4.0,5.0,0,0.00,,CLR,0.00,VWS V13.01,2013-09-13 08:48:00,
2013-09-13 01:53:00,59.3,0.0,30.00,NE,34,2.0,6.0,0,0.00,,CLR,0.00,VWS V13.01,2013-09-13 08:53:00,
2013-09-13 01:58:00,59.1,0.0,29.99,NE,41,2.0,6.0,0,0.00,,CLR,0.00,VWS V13.01,2013-09-13 08:58:00,
2013-09-13 02:03:00,59.0,0.0,29.99,ENE,63,3.0,4.0,0,0.00,,CLR,0.00,VWS V13.01,2013-09-13 09:03:00,
2013-09-13 02:08:00,59.0,0.0,29.99,NE,54,1.0,6.0,0,0.00,,CLR,0.00,VWS V13.01,2013-09-13 09:08:00,
2013-09-13 02:13:00,59.0,0.0,29.99,East,95,2.0,6.0,0,0.00,,CLR,0.00,VWS V13.01,2013-09-13 09:13:00,
2013-09-13 02:18:00,58.8,0.0,29.99,NE,48,2.0,5.0,0,0.00,,CLR,0.00,VWS V13.01,2013-09-13 09:18:00,
2013-09-13 02:23:00,58.7,0.0,29.99,North,11,1.0,5.0,0,0.00,,CLR,0.00,VWS V13.01,2013-09-13 09:23:00,
2013-09-13 02:28:00,58.7,0.0,29.99,NE,51,0.0,5.0,0,0.00,,CLR,0.00,VWS V13.01,2013-09-13 09:28:00,
2013-09-13 02:33:00,58.6,0.0,29.99,ENE,61,2.0,2.0,0,0.00,,CLR,0.00,VWS V13.01,2013-09-13 09:33:00,
2013-09-13 02:38:00,58.6,0.0,29.99,ENE,61,0.0,2.0,0,0.00,,CLR,0.00,VWS V13.01,2013-09-13 09:38:00,
2013-09-13 02:43:00,58.6,0.0,29.99,ENE,59,0.0,3.0,0,0.00,,CLR,0.00,VWS V13.01,2013-09-13 09:43:00,
2013-09-13 02:48:00,58.6,0.0,29.99,ENE,59,0.0,2.0,0,0.00,,CLR,0.00,VWS V13.01,2013-09-13 09:48:00,
2013-09-13 02:53:00,58.5,0.0,29.99,NE,55,4.0,4.0,0,0.00,,CLR,0.00,VWS V13.01,2013-09-13 09:53:00,
2013-09-13 02:59:00,58.6,0.0,29.99,NE,49,1.0,2.0,0,0.00,,CLR,0.00,VWS V13.01,2013-09-13 09:59:00,
2013-09-13 03:04:00,58.6,0.0,29.99,NE,38,1.0,4.0,0,0.00,,CLR,0.00,VWS V13.01,2013-09-13 10:04:00,
2013-09-13 03:09:00,58.5,0.0,29.99,NE,38,0.0,4.0,0,0.00,,CLR,0.00,VWS V13.01,2013-09-13 10:09:00,
2013-09-13 03:14:00,58.5,0.0,29.99,NE,39,0.0,1.0,0,0.00,,CLR,0.00,VWS V13.01,2013-09-13 10:14:00,
2013-09-13 03:19:00,58.5,0.0,29.99,NE,39,1.0,2.0,0,0.00,,CLR,0.00,VWS V13.01,2013-09-13 10:19:00,
2013-09-13 03:24:00,58.5,0.0,29.99,NE,39,1.0,2.0,0,0.00,,CLR,0.00,VWS V13.01,2013-09-13 10:24:00,
2013-09-13 03:29:00,58.5,0.0,29.98,NE,39,0.0,0.0,0,0.00,,CLR,0.00,VWS V13.01,2013-09-13 10:29:00,
2013-09-13 03:34:00,58.5,0.0,29.98,NE,39,0.0,0.0,0,0.00,,CLR,0.00,VWS V13.01,2013-09-13 10:34:00,
2013-09-13 03:39:00,58.5,0.0,29.98,NE,39,1.0,2.0,0,0.00,,CLR,0.00,VWS V13.01,2013-09-13 10:39:00,
2013-09-13 03:44:00,58.4,0.0,29.98,NE,55,0.0,0.0,0,0.00,,CLR,0.00,VWS V13.01,2013-09-13 10:44:00,
2013-09-13 03:49:00,58.4,0.0,29.98,NE,55,0.0,0.0,0,0.00,,CLR,0.00,VWS V13.01,2013-09-13 10:49:00,
2013-09-13 03:54:00,58.4,0.0,29.98,NE,55,0.0,0.0,0,0.00,,CLR,0.00,VWS V13.01,2013-09-13 10:54:00,
2013-09-13 03:59:00,58.4,0.0,29.98,NE,55,0.0,0.0,0,0.00,,CLR,0.00,VWS V13.01,2013-09-13 10:59:00,
2013-09-13 04:04:00,58.4,0.0,29.98,NE,55,0.0,0.0,0,0.00,,CLR,0.00,VWS V13.01,2013-09-13 11:04:00,
2013-09-13 04:09:00,58.4,0.0,29.98,NE,55,0.0,0.0,0,0.00,,CLR,0.00,VWS V13.01,2013-09-13 11:09:00,
2013-09-13 04:14:00,58.4,0.0,29.98,NE,55,0.0,0.0,0,0.00,,CLR,0.00,VWS V13.01,2013-09-13 11:14:00,
2013-09-13 04:20:00,58.3,0.0,29.98,NE,55,0.0,0.0,0,0.00,,CLR,0.00,VWS V13.01,2013-09-13 11:20:00,
2013-09-13 04:25:00,58.3,0.0,29.98,NE,37,0.0,0.0,0,0.00,,CLR,0.00,VWS V13.01,2013-09-13 11:25:00,
2013-09-13 04:30:00,58.3,0.0,29.98,East,88,1.0,4.0,0,0.00,,CLR,0.00,VWS V13.01,2013-09-13 11:30:00,
2013-09-13 04:35:00,58.2,0.0,29.98,NE,42,0.0,4.0,0,0.00,,CLR,0.00,VWS V13.01,2013-09-13 11:35:00,
2013-09-13 04:40:00,58.2,0.0,29.98,NE,42,0.0,4.0,0,0.00,,SCT009,0.00,VWS V13.01,2013-09-13 11:40:00,
2013-09-13 04:45:00,58.2,0.0,29.98,NE,42,0.0,0.0,0,0.00,,SCT009,0.00,VWS V13.01,2013-09-13 11:45:00,
2013-09-13 04:50:00,58.2,0.0,29.98,NE,42,0.0,0.0,0,0.00,,BKN009,0.00,VWS V13.01,2013-09-13 11:50:00,
2013-09-13 04:55:00,58.2,0.0,29.98,NE,42,0.0,1.0,0,0.00,,BKN009,0.00,VWS V13.01,2013-09-13 11:55:00,
2013-09-13 05:00:00,58.1,0.0,29.98,NE,42,0.0,2.0,0,0.00,,BKN009,0.00,VWS V13.01,2013-09-13 12:00:00,
2013-09-13 05:05:00,58.1,0.0,29.98,NE,46,0.0,2.0,0,0.00,,BKN009,0.00,VWS V13.01,2013-09-13 12:05:00,
2013-09-13 05:10:00,58.1,0.0,29.98,NE,40,0.0,3.0,0,0.00,,BKN009,0.00,VWS V13.01,2013-09-13 12:10:00,
2013-09-13 05:15:00,58.1,0.0,29.98,NE,42,0.0,1.0,0,0.00,,BKN009,0.00,VWS V13.01,2013-09-13 12:15:00,
2013-09-13 05:20:00,58.1,0.0,29.98,NE,41,0.0,1.0,0,0.00,,BKN009,0.00,VWS V13.01,2013-09-13 12:20:00,
2013-09-13 05:25:00,58.1,0.0,29.98,NE,41,0.0,1.0,0,0.00,,BKN009,0.00,VWS V13.01,2013-09-13 12:25:00,
2013-09-13 05:30:00,58.0,0.0,29.98,ENE,62,0.0,2.0,0,0.00,,BKN009,0.00,VWS V13.01,2013-09-13 12:30:00,
2013-09-13 05:36:00,58.0,0.0,29.97,NNE,32,1.0,3.0,0,0.00,,BKN009,0.00,VWS V13.01,2013-09-13 12:36:00,
2013-09-13 05:41:00,58.0,0.0,29.98,ENE,60,2.0,3.0,0,0.00,,BKN009,0.00,VWS V13.01,2013-09-13 12:41:00,
2013-09-13 05:46:00,57.9,0.0,29.98,ENE,60,0.0,1.0,0,0.00,,BKN009,0.00,VWS V13.01,2013-09-13 12:46:00,
2013-09-13 05:51:00,57.8,0.0,29.98,ENE,60,0.0,1.0,0,0.00,,OVC009,0.00,VWS V13.01,2013-09-13 12:51:00,
2013-09-13 05:56:00,57.8,0.0,29.98,ENE,60,0.0,1.0,0,0.00,,OVC009,0.00,VWS V13.01,2013-09-13 12:56:00,
2013-09-13 06:01:00,57.7,0.0,29.98,ENE,60,0.0,1.0,0,0.00,,OVC009,0.00,VWS V13.01,2013-09-13 13:01:00,
2013-09-13 06:06:00,57.7,0.0,29.98,ENE,60,1.0,1.0,0,0.00,,OVC009,0.00,VWS V13.01,2013-09-13 13:06:00,
2013-09-13 06:11:00,57.7,0.0,29.98,ENE,60,0.0,2.0,0,0.00,,OVC009,0.00,VWS V13.01,2013-09-13 13:11:00,
2013-09-13 06:16:00,57.6,0.0,29.98,ENE,60,0.0,1.0,0,0.00,,OVC009,0.00,VWS V13.01,2013-09-13 13:16:00,
2013-09-13 06:21:00,57.6,0.0,29.98,ENE,60,0.0,1.0,0,0.00,,OVC009,0.00,VWS V13.01,2013-09-13 13:21:00,
2013-09-13 06:26:00,57.5,0.0,29.98,ENE,60,0.0,1.0,0,0.00,,OVC009,0.00,VWS V13.01,2013-09-13 13:26:00,
2013-09-13 06:31:00,57.5,0.0,29.98,ENE,60,0.0,0.0,0,0.00,,OVC009,0.00,VWS V13.01,2013-09-13 13:31:00,
2013-09-13 06:36:00,57.5,0.0,29.98,ENE,60,0.0,0.0,0,0.00,,OVC009,0.00,VWS V13.01,2013-09-13 13:36:00,
2013-09-13 06:41:00,57.5,0.0,29.97,ENE,60,0.0,0.0,0,0.00,,OVC006,0.00,VWS V13.01,2013-09-13 13:41:00,
2013-09-13 06:46:00,57.4,0.0,29.97,ENE,60,0.0,0.0,0,0.00,,OVC006,0.00,VWS V13.01,2013-09-13 13:46:00,
2013-09-13 06:51:00,57.4,0.0,29.97,ENE,60,0.0,0.0,0,0.00,,OVC006,0.00,VWS V13.01,2013-09-13 13:51:00,
2013-09-13 06:57:00,57.4,0.0,29.97,ENE,60,0.0,0.0,0,0.00,,OVC006,0.00,VWS V13.01,2013-09-13 13:57:00,
2013-09-13 07:02:00,57.4,0.0,29.98,ENE,60,0.0,0.0,0,0.00,,OVC006,0.00,VWS V13.01,2013-09-13 14:02:00,
2013-09-13 07:07:00,57.3,0.0,29.98,North,11,0.0,1.0,0,0.00,,OVC006,0.00,VWS V13.01,2013-09-13 14:07:00,
2013-09-13 07:12:00,57.3,0.0,29.98,North,11,0.0,1.0,0,0.00,,OVC006,0.00,VWS V13.01,2013-09-13 14:12:00,
2013-09-13 07:17:00,57.4,0.0,29.97,North,11,0.0,0.0,0,0.00,,OVC006,0.00,VWS V13.01,2013-09-13 14:17:00,
2013-09-13 07:22:00,57.4,0.0,29.97,North,11,0.0,0.0,0,0.00,,OVC006,0.00,VWS V13.01,2013-09-13 14:22:00,
2013-09-13 07:27:00,57.5,0.0,29.98,North,11,0.0,0.0,0,0.00,,OVC006,0.00,VWS V13.01,2013-09-13 14:27:00,
2013-09-13 07:32:00,57.5,0.0,29.98,North,11,1.0,2.0,0,0.00,,OVC006,0.00,VWS V13.01,2013-09-13 14:32:00,
2013-09-13 07:37:00,57.5,0.0,29.98,North,11,0.0,2.0,0,0.00,,OVC006,0.00,VWS V13.01,2013-09-13 14:37:00,
2013-09-13 07:42:00,57.6,0.0,29.98,NNE,13,2.0,2.0,0,0.00,,OVC005,0.00,VWS V13.01,2013-09-13 14:42:00,
2013-09-13 07:47:00,57.6,0.0,29.98,NNE,13,0.0,2.0,0,0.00,,OVC005,0.00,VWS V13.01,2013-09-13 14:47:00,
2013-09-13 07:52:00,57.7,0.0,29.98,ENE,66,0.0,3.0,0,0.00,,OVC005,0.00,VWS V13.01,2013-09-13 14:52:00,
2013-09-13 07:57:00,57.7,0.0,29.98,ENE,66,1.0,3.0,0,0.00,,OVC005,0.00,VWS V13.01,2013-09-13 14:57:00,
2013-09-13 08:02:00,57.8,0.0,29.98,ENE,66,0.0,1.0,0,0.00,,OVC005,0.00,VWS V13.01,2013-09-13 15:02:00,
2013-09-13 08:07:00,57.9,0.0,29.98,ENE,66,0.0,1.0,0,0.00,,OVC005,0.00,VWS V13.01,2013-09-13 15:07:00,
2013-09-13 08:13:00,58.0,0.0,29.98,ENE,66,0.0,2.0,0,0.00,,OVC005,0.00,VWS V13.01,2013-09-13 15:13:00,
2013-09-13 08:18:00,58.1,0.0,29.98,ENE,66,0.0,1.0,0,0.00,,OVC005,0.00,VWS V13.01,2013-09-13 15:18:00,
2013-09-13 08:23:00,58.2,0.0,29.98,ENE,66,0.0,1.0,0,0.00,,OVC005,0.00,VWS V13.01,2013-09-13 15:23:00,
2013-09-13 08:28:00,58.3,0.0,29.98,NE,50,0.0,3.0,0,0.00,,OVC005,0.00,VWS V13.01,2013-09-13 15:28:00,
2013-09-13 08:33:00,58.4,0.0,29.98,NNE,32,0.0,3.0,0,0.00,,OVC005,0.00,VWS V13.01,2013-09-13 15:33:00,
2013-09-13 08:38:00,58.4,0.0,29.98,NNE,33,2.0,3.0,0,0.00,,OVC005,0.00,VWS V13.01,2013-09-13 15:38:00,
2013-09-13 08:43:00,58.5,0.0,29.98,NNE,32,0.0,3.0,0,0.00,,,0.00,VWS V13.01,2013-09-13 15:43:00,
2013-09-13 08:48:00,58.6,0.0,29.98,NNE,32,0.0,2.0,0,0.00,,,0.00,VWS V13.01,2013-09-13 15:48:00,
2013-09-13 08:53:00,58.8,0.0,29.98,NNE,32,0.0,2.0,0,0.00,,,0.00,VWS V13.01,2013-09-13 15:53:00,
2013-09-13 08:58:00,59.0,0.0,29.97,North,9,3.0,3.0,0,0.00,,,0.00,VWS V13.01,2013-09-13 15:58:00,
2013-09-13 09:03:00,59.1,0.0,29.97,NNE,20,3.0,4.0,0,0.00,,,0.00,VWS V13.01,2013-09-13 16:03:00,
2013-09-13 09:08:00,59.2,0.0,29.98,NE,38,0.0,4.0,0,0.00,,,0.00,VWS V13.01,2013-09-13 16:08:00,
2013-09-13 09:13:00,59.3,0.0,29.98,ENE,61,1.0,4.0,0,0.00,,,0.00,VWS V13.01,2013-09-13 16:13:00,
2013-09-13 09:18:00,59.4,0.0,29.97,NE,39,2.0,3.0,0,0.00,,,0.00,VWS V13.01,2013-09-13 16:18:00,
2013-09-13 09:23:00,59.6,0.0,29.97,NE,38,2.0,3.0,0,0.00,,,0.00,VWS V13.01,2013-09-13 16:23:00,
2013-09-13 09:29:00,59.9,0.0,29.97,NE,35,0.0,0.0,0,0.00,,,0.00,VWS V13.01,2013-09-13 16:29:00,
2013-09-13 09:34:00,60.2,0.0,29.97,NNE,30,0.0,2.0,0,0.00,,,0.00,VWS V13.01,2013-09-13 16:34:00,
2013-09-13 09:39:00,60.4,0.0,29.97,NNE,26,2.0,4.0,0,0.00,,,0.00,VWS V13.01,2013-09-13 16:39:00,
2013-09-13 09:44:00,60.6,0.0,29.97,NNE,24,1.0,2.0,0,0.00,,,0.00,VWS V13.01,2013-09-13 16:44:00,
2013-09-13 09:49:00,60.8,0.0,29.98,NNE,24,0.0,2.0,0,0.00,,,0.00,VWS V13.01,2013-09-13 16:49:00,
2013-09-13 09:54:00,60.9,0.0,29.98,NNE,30,1.0,4.0,0,0.00,,,0.00,VWS V13.01,2013-09-13 16:54:00,
2013-09-13 09:59:00,61.1,0.0,29.98,NNE,30,0.0,0.0,0,0.00,,,0.00,VWS V13.01,2013-09-13 16:59:00,
2013-09-13 10:04:00,61.3,0.0,29.98,NNE,32,1.0,3.0,0,0.00,,,0.00,VWS V13.01,2013-09-13 17:04:00,
2013-09-13 10:09:00,61.4,0.0,29.98,NNE,29,0.0,3.0,0,0.00,,,0.00,VWS V13.01,2013-09-13 17:09:00,
2013-09-13 10:14:00,61.6,0.0,29.98,SSE,157,1.0,2.0,0,0.00,,,0.00,VWS V13.01,2013-09-13 17:14:00,
2013-09-13 10:19:00,61.9,0.0,29.97,South,188,2.0,3.0,0,0.00,,,0.00,VWS V13.01,2013-09-13 17:19:00,
2013-09-13 10:24:00,62.2,0.0,29.97,South,188,0.0,3.0,0,0.00,,,0.00,VWS V13.01,2013-09-13 17:24:00,
2013-09-13 10:29:00,62.6,0.0,29.97,South,188,0.0,0.0,0,0.00,,,0.00,VWS V13.01,2013-09-13 17:29:00,
2013-09-13 10:34:00,63.0,0.0,29.97,South,188,0.0,0.0,0,0.00,,,0.00,VWS V13.01,2013-09-13 17:34:00,
2013-09-13 10:40:00,63.2,0.0,29.96,South,188,0.0,0.0,0,0.00,,,0.00,VWS V13.01,2013-09-13 17:40:00,
2013-09-13 10:45:00,63.5,-18.8,29.96,South,188,0.0,0.0,3,0.00,,,0.00,VWS V13.01,2013-09-13 17:45:00,
2013-09-13 10:50:00,63.8,-18.6,29.96,South,188,0.0,0.0,3,0.00,,,0.00,VWS V13.01,2013-09-13 17:50:00,
2013-09-13 10:55:00,64.2,-12.6,29.96,SSE,150,2.0,2.0,4,0.00,,,0.00,VWS V13.01,2013-09-13 17:55:00,
2013-09-13 11:00:00,64.8,14.5,29.96,South,188,0.0,1.0,14,0.00,,,0.00,VWS V13.01,2013-09-13 18:00:00,
2013-09-13 11:05:00,65.4,-0.3,29.96,South,188,1.0,2.0,7,0.00,,,0.00,VWS V13.01,2013-09-13 18:05:00,
2013-09-13 11:10:00,66.0,18.5,29.96,South,188,0.0,2.0,16,0.00,,,0.00,VWS V13.01,2013-09-13 18:10:00,
2013-09-13 11:15:00,66.7,3.5,29.95,SE,130,1.0,1.0,8,0.00,,,0.00,VWS V13.01,2013-09-13 18:15:00,
2013-09-13 11:20:00,67.1,25.9,29.95,SE,130,0.0,1.0,21,0.00,,,0.00,VWS V13.01,2013-09-13 18:20:00,
2013-09-13 11:25:00,67.2,22.3,29.95,ENE,61,0.0,3.0,18,0.00,,,0.00,VWS V13.01,2013-09-13 18:25:00,
2013-09-13 11:30:00,67.5,35.0,29.95,North,360,0.0,2.0,30,0.00,,,0.00,VWS V13.01,2013-09-13 18:30:00,
2013-09-13 11:35:00,68.1,11.6,29.95,NE,51,0.0,3.0,11,0.00,,,0.00,VWS V13.01,2013-09-13 18:35:00,
2013-09-13 11:40:00,68.4,41.8,29.94,NE,42,1.0,3.0,38,0.00,,OVC007,0.00,VWS V13.01,2013-09-13 18:40:00,
2013-09-13 11:45:00,68.8,36.1,29.94,SE,135,1.0,2.0,30,0.00,,OVC007,0.00,VWS V13.01,2013-09-13 18:45:00,
2013-09-13 11:50:00,69.2,45.8,29.94,SSE,155,0.0,3.0,43,0.00,,OVC007,0.00,VWS V13.01,2013-09-13 18:50:00,
2013-09-13 11:56:00,69.8,48.1,29.94,South,187,1.0,5.0,46,0.00,,OVC007,0.00,VWS V13.01,2013-09-13 18:56:00,
2013-09-13 12:01:00,70.4,49.2,29.93,ENE,60,1.0,2.0,47,0.00,,OVC007,0.00,VWS V13.01,2013-09-13 19:01:00,
2013-09-13 12:06:00,70.7,46.5,29.93,NNE,23,1.0,2.0,42,0.00,,OVC007,0.00,VWS V13.01,2013-09-13 19:06:00,
2013-09-13 12:11:00,71.0,48.0,29.93,East,98,1.0,4.0,44,0.00,,OVC007,0.00,VWS V13.01,2013-09-13 19:11:00,
2013-09-13 12:16:00,71.3,48.9,29.93,ENE,65,0.0,2.0,45,0.00,,OVC007,0.00,VWS V13.01,2013-09-13 19:16:00,
2013-09-13 12:21:00,71.5,52.4,29.92,South,190,0.0,6.0,51,0.00,,OVC007,0.00,VWS V13.01,2013-09-13 19:21:00,
2013-09-13 12:26:00,71.8,53.8,29.92,East,91,1.0,6.0,53,0.00,,OVC007,0.00,VWS V13.01,2013-09-13 19:26:00,
2013-09-13 12:31:00,72.1,51.9,29.92,ENE,69,0.0,2.0,49,0.00,,OVC007,0.00,VWS V13.01,2013-09-13 19:31:00,
2013-09-13 12:36:00,72.5,54.9,29.92,SSE,158,1.0,6.0,54,0.00,,OVC007,0.00,VWS V13.01,2013-09-13 19:36:00,
2013-09-13 12:41:00,72.9,51.5,29.92,SSE,158,0.0,6.0,47,0.00,,OVC011,0.00,VWS V13.01,2013-09-13 19:41:00,
2013-09-13 12:46:00,73.5,52.6,29.91,SSW,199,3.0,4.0,48,0.00,,OVC011,0.00,VWS V13.01,2013-09-13 19:46:00,
2013-09-13 12:51:00,73.8,54.0,29.91,South,172,1.0,4.0,50,0.00,,OVC011,0.00,VWS V13.01,2013-09-13 19:51:00,
2013-09-13 12:56:00,74.0,56.8,29.91,WSW,247,1.0,9.0,55,0.00,,OVC011,0.00,VWS V13.01,2013-09-13 19:56:00,
2013-09-13 13:01:00,74.2,57.0,29.90,SSW,198,5.0,6.0,55,0.00,,OVC011,0.00,VWS V13.01,2013-09-13 20:01:00,
2013-09-13 13:07:00,74.2,57.5,29.90,South,169,2.0,7.0,56,0.00,,OVC011,0.00,VWS V13.01,2013-09-13 20:07:00,
2013-09-13 13:12:00,74.3,57.1,29.90,ESE,123,0.0,7.0,55,0.00,,OVC011,0.00,VWS V13.01,2013-09-13 20:12:00,
2013-09-13 13:17:00,74.8,58.6,29.90,South,188,2.0,9.0,57,0.00,,OVC011,0.00,VWS V13.01,2013-09-13 20:17:00,
2013-09-13 13:22:00,74.9,58.2,29.90,NNE,26,0.0,9.0,56,0.00,,OVC011,0.00,VWS V13.01,2013-09-13 20:22:00,
2013-09-13 13:27:00,75.4,58.6,29.90,SSW,209,2.0,9.0,56,0.00,,OVC011,0.00,VWS V13.01,2013-09-13 20:27:00,
2013-09-13 13:32:00,75.5,57.7,29.90,SSE,159,4.0,7.0,54,0.00,,OVC011,0.00,VWS V13.01,2013-09-13 20:32:00,
2013-09-13 13:37:00,75.5,59.7,29.90,South,178,3.0,7.0,58,0.00,,OVC011,0.00,VWS V13.01,2013-09-13 20:37:00,
2013-09-13 13:42:00,75.7,59.4,29.89,SE,142,2.0,7.0,57,0.00,,BKN011,0.00,VWS V13.01,2013-09-13 20:42:00,
2013-09-13 13:47:00,76.3,60.0,29.89,SSE,162,5.0,5.0,57,0.00,,BKN011,0.00,VWS V13.01,2013-09-13 20:47:00,
2013-09-13 13:52:00,76.4,57.5,29.89,SW,219,1.0,6.0,52,0.00,,BKN011,0.00,VWS V13.01,2013-09-13 20:52:00,
2013-09-13 13:57:00,76.5,60.2,29.89,South,182,5.0,6.0,57,0.00,,BKN011,0.00,VWS V13.01,2013-09-13 20:57:00,
2013-09-13 14:02:00,76.4,60.5,29.89,South,183,4.0,7.0,58,0.00,,BKN011,0.00,VWS V13.01,2013-09-13 21:02:00,
2013-09-13 14:07:00,76.3,59.5,29.89,South,190,3.0,7.0,56,0.00,,BKN011,0.00,VWS V13.01,2013-09-13 21:07:00,
2013-09-13 14:12:00,76.6,60.7,29.89,SSW,200,3.0,7.0,58,0.00,,BKN011,0.00,VWS V13.01,2013-09-13 21:12:00,
2013-09-13 14:17:00,76.9,61.0,29.88,SSE,150,2.0,6.0,58,0.00,,BKN011,0.00,VWS V13.01,2013-09-13 21:17:00,
2013-09-13 14:22:00,77.1,60.7,29.88,SSW,198,4.0,6.0,57,0.00,,BKN011,0.00,VWS V13.01,2013-09-13 21:22:00,
2013-09-13 14:28:00,77.0,61.1,29.88,SE,130,2.0,6.0,58,0.00,,BKN011,0.00,VWS V13.01,2013-09-13 21:28:00,
2013-09-13 14:33:00,77.1,60.7,29.88,ESE,111,3.0,5.0,57,0.00,,BKN011,0.00,VWS V13.01,2013-09-13 21:33:00,
2013-09-13 14:38:00,77.3,60.9,29.88,SSW,211,2.0,5.0,57,0.00,,BKN011,0.00,VWS V13.01,2013-09-13 21:38:00,
2013-09-13 14:43:00,77.7,61.8,29.88,SE,139,0.0,5.0,58,0.00,,FEW100,0.00,VWS V13.01,2013-09-13 21:43:00,
2013-09-13 14:48:00,78.1,62.6,29.88,NE,43,1.0,7.0,59,0.00,,FEW100,0.00,VWS V13.01,2013-09-13 21:48:00,
2013-09-13 14:53:00,77.8,61.4,29.87,NE,54,3.0,8.0,57,0.00,,FEW100,0.00,VWS V13.01,2013-09-13 21:53:00,
2013-09-13 14:58:00,78.0,61.5,29.87,ENE,59,9.0,9.0,57,0.00,,FEW100,0.00,VWS V13.01,2013-09-13 21:58:00,
2013-09-13 15:03:00,77.7,61.8,29.87,East,86,0.0,11.0,58,0.00,,FEW100,0.00,VWS V13.01,2013-09-13 22:03:00,
2013-09-13 15:08:00,78.1,60.6,29.87,NE,49,5.0,11.0,55,0.00,,FEW100,0.00,VWS V13.01,2013-09-13 22:08:00,
2013-09-13 15:13:00,78.0,61.5,29.86,NE,55,2.0,11.0,57,0.00,,FEW100,0.00,VWS V13.01,2013-09-13 22:13:00,
2013-09-13 15:18:00,78.0,61.5,29.86,NE,46,3.0,6.0,57,0.00,,FEW100,0.00,VWS V13.01,2013-09-13 22:18:00,
2013-09-13 15:23:00,78.1,61.6,29.86,ENE,76,4.0,8.0,57,0.00,,FEW100,0.00,VWS V13.01,2013-09-13 22:23:00,
2013-09-13 15:28:00,78.1,61.1,29.86,NE,44,0.0,8.0,56,0.00,,FEW100,0.00,VWS V13.01,2013-09-13 22:28:00,
2013-09-13 15:33:00,77.7,57.6,29.86,NNE,27,3.0,5.0,50,0.00,,FEW100,0.00,VWS V13.01,2013-09-13 22:33:00,
2013-09-13 15:38:00,77.3,57.2,29.85,NNW,334,0.0,5.0,50,0.00,,FEW100,0.00,VWS V13.01,2013-09-13 22:38:00,
2013-09-13 15:44:00,77.0,59.1,29.86,East,99,0.0,0.0,54,0.00,,FEW100,0.00,VWS V13.01,2013-09-13 22:44:00,
2013-09-13 15:49:00,77.1,58.1,29.85,NNE,27,1.0,5.0,52,0.00,,FEW100,0.00,VWS V13.01,2013-09-13 22:49:00,
2013-09-13 15:54:00,76.8,52.6,29.85,NE,34,3.0,5.0,43,0.00,,FEW100,0.00,VWS V13.01,2013-09-13 22:54:00,
2013-09-13 15:59:00,76.2,54.5,29.85,NE,39,2.0,4.0,47,0.00,,FEW100,0.00,VWS V13.01,2013-09-13 22:59:00,
2013-09-13 16:04:00,76.1,53.8,29.85,North,360,1.0,6.0,46,0.00,,FEW100,0.00,VWS V13.01,2013-09-13 23:04:00,
2013-09-13 16:09:00,76.0,54.3,29.85,North,355,2.0,10.0,47,0.00,,FEW100,0.00,VWS V13.01,2013-09-13 23:09:00,
2013-09-13 16:14:00,76.1,53.2,29.85,NNE,29,6.0,9.0,45,0.00,,FEW100,0.00,VWS V13.01,2013-09-13 23:14:00,
2013-09-13 16:19:00,75.9,53.1,29.85,North,355,2.0,9.0,45,0.00,,FEW100,0.00,VWS V13.01,2013-09-13 23:19:00,
2013-09-13 16:24:00,75.8,54.2,29.85,NE,46,3.0,9.0,47,0.00,,FEW100,0.00,VWS V13.01,2013-09-13 23:24:00,
2013-09-13 16:29:00,75.5,50.8,29.85,NNW,339,1.0,4.0,42,0.00,,FEW100,0.00,VWS V13.01,2013-09-13 23:29:00,
2013-09-13 16:34:00,75.0,46.3,29.85,NNE,15,2.0,5.0,36,0.00,,FEW100,0.00,VWS V13.01,2013-09-13 23:34:00,
2013-09-13 16:39:00,74.6,52.5,29.85,NNE,29,0.0,5.0,46,0.00,,FEW100,0.00,VWS V13.01,2013-09-13 23:39:00,
2013-09-13 16:44:00,75.0,48.4,29.84,NNE,15,0.0,1.0,39,0.00,,FEW100,0.00,VWS V13.01,2013-09-13 23:44:00,
2013-09-13 16:49:00,74.6,49.4,29.84,NE,37,0.0,9.0,41,0.00,,FEW100,0.00,VWS V13.01,2013-09-13 23:49:00,
2013-09-13 16:55:00,74.2,42.5,29.84,NNE,33,3.0,9.0,32,0.00,,FEW100,0.00,VWS V13.01,2013-09-13 23:55:00,
2013-09-13 17:00:00,74.0,42.3,29.84,North,360,1.0,2.0,32,0.00,,FEW100,0.00,VWS V13.01,2013-09-14 00:00:00,
2013-09-13 17:05:00,73.8,40.5,29.84,North,11,0.0,9.0,30,0.00,,FEW100,0.00,VWS V13.01,2013-09-14 00:05:00,
2013-09-13 17:10:00,73.5,39.3,29.84,North,355,0.0,9.0,29,0.00,,FEW150,0.00,VWS V13.01,2013-09-14 00:10:00,
2013-09-13 17:15:00,73.1,29.7,29.84,NNE,22,0.0,1.0,20,0.00,,FEW150,0.00,VWS V13.01,2013-09-14 00:15:00,
2013-09-13 17:20:00,73.0,37.1,29.84,NNE,15,1.0,3.0,27,0.00,,FEW150,0.00,VWS V13.01,2013-09-14 00:20:00,
2013-09-13 17:25:00,73.0,32.0,29.84,NE,34,0.0,4.0,22,0.00,,FEW150,0.00,VWS V13.01,2013-09-14 00:25:00,
2013-09-13 17:30:00,72.9,29.5,29.84,NNE,25,2.0,4.0,20,0.00,,FEW150,0.00,VWS V13.01,2013-09-14 00:30:00,
2013-09-13 17:35:00,72.7,24.0,29.84,NNE,13,0.0,4.0,16,0.00,,FEW150,0.00,VWS V13.01,2013-09-14 00:35:00,
2013-09-13 17:40:00,72.4,25.2,29.84,North,5,0.0,4.0,17,0.00,,FEW150,0.00,VWS V13.01,2013-09-14 00:40:00,
2013-09-13 17:45:00,72.1,7.6,29.84,North,5,1.0,2.0,8,0.00,,FEW150,0.00,VWS V13.01,2013-09-14 00:45:00,
2013-09-13 17:50:00,71.8,1.1,29.84,North,5,0.0,2.0,6,0.00,,FEW150,0.00,VWS V13.01,2013-09-14 00:50:00,
2013-09-13 17:55:00,71.4,0.8,29.84,NNE,26,0.0,4.0,6,0.00,,FEW150,0.00,VWS V13.01,2013-09-14 00:55:00,
2013-09-13 18:00:00,71.1,-3.2,29.84,NNE,26,0.0,1.0,5,0.00,,FEW150,0.00,VWS V13.01,2013-09-14 01:00:00,
2013-09-13 18:05:00,70.9,0.0,29.84,NNE,15,0.0,1.0,0,0.00,,FEW150,0.00,VWS V13.01,2013-09-14 01:05:00,
2013-09-13 18:11:00,70.5,0.0,29.84,NNE,26,0.0,3.0,0,0.00,,FEW150,0.00,VWS V13.01,2013-09-14 01:11:00,
2013-09-13 18:16:00,70.2,0.0,29.84,NNE,22,3.0,3.0,0,0.00,,FEW150,0.00,VWS V13.01,2013-09-14 01:16:00,
2013-09-13 18:21:00,70.0,0.0,29.84,ENE,65,1.0,6.0,0,0.00,,FEW150,0.00,VWS V13.01,2013-09-14 01:21:00,
2013-09-13 18:26:00,69.9,0.0,29.84,NNE,28,1.0,6.0,0,0.00,,FEW150,0.00,VWS V13.01,2013-09-14 01:26:00,
2013-09-13 18:31:00,69.7,0.0,29.84,NNE,17,0.0,1.0,0,0.00,,FEW150,0.00,VWS V13.01,2013-09-14 01:31:00,
2013-09-13 18:36:00,69.5,0.0,29.84,NNE,17,0.0,1.0,0,0.00,,FEW150,0.00,VWS V13.01,2013-09-14 01:36:00,
2013-09-13 18:41:00,69.2,0.0,29.84,NNE,17,1.0,2.0,0,0.00,,FEW150,0.00,VWS V13.01,2013-09-14 01:41:00,
2013-09-13 18:46:00,68.9,0.0,29.84,NNE,19,0.0,2.0,0,0.00,,FEW150,0.00,VWS V13.01,2013-09-14 01:46:00,
2013-09-13 18:51:00,68.6,0.0,29.84,North,5,0.0,3.0,0,0.00,,FEW150,0.00,VWS V13.01,2013-09-14 01:51:00,
2013-09-13 18:56:00,68.3,0.0,29.84,NNE,30,0.0,4.0,0,0.00,,FEW150,0.00,VWS V13.01,2013-09-14 01:56:00,
2013-09-13 19:01:00,68.1,0.0,29.84,ENE,58,4.0,4.0,0,0.00,,FEW150,0.00,VWS V13.01,2013-09-14 02:01:00,
2013-09-13 19:06:00,67.9,0.0,29.83,NNE,32,0.0,5.0,0,0.00,,FEW150,0.00,VWS V13.01,2013-09-14 02:06:00,
2013-09-13 19:12:00,67.7,0.0,29.84,ENE,57,0.0,5.0,0,0.00,,FEW150,0.00,VWS V13.01,2013-09-14 02:12:00,
2013-09-13 19:17:00,67.4,0.0,29.84,North,5,0.0,3.0,0,0.00,,FEW150,0.00,VWS V13.01,2013-09-14 02:17:00,
2013-09-13 19:22:00,67.0,0.0,29.84,North,5,1.0,4.0,0,0.00,,FEW150,0.00,VWS V13.01,2013-09-14 02:22:00,
2013-09-13 19:27:00,66.6,0.0,29.84,NNE,26,1.0,4.0,0,0.00,,FEW150,0.00,VWS V13.01,2013-09-14 02:27:00,
2013-09-13 19:32:00,66.3,0.0,29.84,NNE,19,1.0,3.0,0,0.00,,FEW150,0.00,VWS V13.01,2013-09-14 02:32:00,
2013-09-13 19:37:00,65.9,0.0,29.84,NNE,26,1.0,4.0,0,0.00,,FEW150,0.00,VWS V13.01,2013-09-14 02:37:00,
2013-09-13 19:42:00,65.6,0.0,29.84,NNE,16,2.0,6.0,0,0.00,,FEW150,0.00,VWS V13.01,2013-09-14 02:42:00,
2013-09-13 19:47:00,65.3,0.0,29.85,NE,46,2.0,5.0,0,0.00,,FEW150,0.00,VWS V13.01,2013-09-14 02:47:00,
2013-09-13 19:52:00,65.0,0.0,29.85,NNE,26,2.0,5.0,0,0.00,,FEW150,0.00,VWS V13.01,2013-09-14 02:52:00,
2013-09-13 19:57:00,64.7,0.0,29.85,NNE,31,0.0,5.0,0,0.00,,FEW150,0.00,VWS V13.01,2013-09-14 02:57:00,
2013-09-13 20:02:00,64.4,0.0,29.85,NNE,32,0.0,4.0,0,0.00,,FEW150,0.00,VWS V13.01,2013-09-14 03:02:00,
2013-09-13 20:07:00,64.2,0.0,29.86,ENE,65,0.0,4.0,0,0.00,,FEW150,0.00,VWS V13.01,2013-09-14 03:07:00,
2013-09-13 20:13:00,64.0,0.0,29.85,NE,34,1.0,4.0,0,0.00,,FEW150,0.00,VWS V13.01,2013-09-14 03:13:00,
2013-09-13 20:18:00,63.7,0.0,29.86,North,5,1.0,3.0,0,0.00,,FEW150,0.00,VWS V13.01,2013-09-14 03:18:00,
2013-09-13 20:23:00,63.6,0.0,29.85,NNE,22,0.0,3.0,0,0.00,,FEW150,0.00,VWS V13.01,2013-09-14 03:23:00,
2013-09-13 20:28:00,63.4,0.0,29.86,NNE,22,0.0,3.0,0,0.00,,FEW150,0.00,VWS V13.01,2013-09-14 03:28:00,
2013-09-13 20:33:00,63.2,0.0,29.86,NNE,22,0.0,1.0,0,0.00,,FEW150,0.00,VWS V13.01,2013-09-14 03:33:00,
2013-09-13 20:38:00,63.0,0.0,29.86,NNE,22,0.0,1.0,0,0.00,,FEW150,0.00,VWS V13.01,2013-09-14 03:38:00,
2013-09-13 20:43:00,62.8,0.0,29.86,NNE,22,0.0,1.0,0,0.00,,FEW150,0.00,VWS V13.01,2013-09-14 03:43:00,
2013-09-13 20:48:00,62.6,0.0,29.87,NNE,22,0.0,2.0,0,0.00,,FEW150,0.00,VWS V13.01,2013-09-14 03:48:00,
2013-09-13 20:53:00,62.5,0.0,29.87,NNE,22,0.0,2.0,0,0.00,,FEW150,0.00,VWS V13.01,2013-09-14 03:53:00,
2013-09-13 20:58:00,62.2,0.0,29.87,NNE,22,0.0,2.0,0,0.00,,FEW150,0.00,VWS V13.01,2013-09-14 03:58:00,
2013-09-13 21:01:00,62.2,0.0,29.87,NNE,22,0.0,0.0,0,0.00,,FEW150,0.00,VWS V13.01,2013-09-14 04:01:00,
2013-09-13 21:05:00,62.0,0.0,29.87,NNE,22,0.0,0.0,0,0.00,,FEW150,0.00,VWS V13.01,2013-09-14 04:05:00,
2013-09-13 21:10:00,61.8,0.0,29.87,NNE,22,0.0,0.0,0,0.00,,FEW150,0.00,VWS V13.01,2013-09-14 04:10:00,
2013-09-13 21:15:00,61.6,0.0,29.87,NNE,22,0.0,0.0,0,0.00,,FEW150,0.00,VWS V13.01,2013-09-14 04:15:00,
2013-09-13 21:20:00,61.4,0.0,29.87,NNE,22,0.0,0.0,0,0.00,,FEW150,0.00,VWS V13.01,2013-09-14 04:20:00,
2013-09-13 21:25:00,61.3,0.0,29.87,NNE,22,0.0,0.0,0,0.00,,FEW150,0.00,VWS V13.01,2013-09-14 04:25:00,
2013-09-13 21:31:00,61.1,0.0,29.87,NNE,22,0.0,0.0,0,0.00,,FEW150,0.00,VWS V13.01,2013-09-14 04:31:00,
2013-09-13 21:36:00,61.0,0.0,29.87,NNE,22,0.0,0.0,0,0.00,,FEW150,0.00,VWS V13.01,2013-09-14 04:36:00,
2013-09-13 21:41:00,60.8,0.0,29.87,NNE,22,0.0,0.0,0,0.00,,CLR,0.00,VWS V13.01,2013-09-14 04:41:00,
2013-09-13 21:46:00,60.7,0.0,29.87,NNE,22,0.0,0.0,0,0.00,,CLR,0.00,VWS V13.01,2013-09-14 04:46:00,
2013-09-13 21:51:00,60.6,0.0,29.87,NNE,22,0.0,0.0,0,0.00,,CLR,0.00,VWS V13.01,2013-09-14 04:51:00,
2013-09-13 21:56:00,60.5,0.0,29.87,NNE,22,0.0,0.0,0,0.00,,CLR,0.00,VWS V13.01,2013-09-14 04:56:00,
2013-09-13 22:01:00,60.5,0.0,29.86,NNE,22,0.0,0.0,0,0.00,,CLR,0.00,VWS V13.01,2013-09-14 05:01:00,
2013-09-13 22:06:00,60.5,0.0,29.87,NNE,22,0.0,0.0,0,0.00,,CLR,0.00,VWS V13.01,2013-09-14 05:06:00,
2013-09-13 22:11:00,60.6,0.0,29.87,NNE,22,0.0,0.0,0,0.00,,CLR,0.00,VWS V13.01,2013-09-14 05:11:00,
2013-09-13 22:16:00,60.7,0.0,29.87,NNE,22,0.0,0.0,0,0.00,,CLR,0.00,VWS V13.01,2013-09-14 05:16:00,
2013-09-13 22:21:00,60.7,0.0,29.87,NNE,22,0.0,0.0,0,0.00,,CLR,0.00,VWS V13.01,2013-09-14 05:21:00,
2013-09-13 22:26:00,60.7,0.0,29.87,NNE,22,0.0,0.0,0,0.00,,CLR,0.00,VWS V13.01,2013-09-14 05:26:00,
2013-09-13 22:32:00,60.8,0.0,29.87,NNE,22,0.0,0.0,0,0.00,,CLR,0.00,VWS V13.01,2013-09-14 05:32:00,
2013-09-13 22:37:00,60.8,0.0,29.87,NNE,22,0.0,0.0,0,0.00,,CLR,0.00,VWS V13.01,2013-09-14 05:37:00,
2013-09-13 22:42:00,60.8,0.0,29.86,NNE,22,0.0,0.0,0,0.00,,CLR,0.00,VWS V13.01,2013-09-14 05:42:00,
2013-09-13 22:47:00,60.9,0.0,29.86,NNE,22,0.0,0.0,0,0.00,,CLR,0.00,VWS V13.01,2013-09-14 05:47:00,
2013-09-13 22:52:00,60.9,0.0,29.86,NNE,22,0.0,0.0,0,0.00,,CLR,0.00,VWS V13.01,2013-09-14 05:52:00,
2013-09-13 22:57:00,60.9,0.0,29.86,NNE,22,0.0,0.0,0,0.00,,CLR,0.00,VWS V13.01,2013-09-14 05:57:00,
2013-09-13 23:02:00,60.9,0.0,29.86,NNE,22,0.0,0.0,0,0.00,,CLR,0.00,VWS V13.01,2013-09-14 06:02:00,
2013-09-13 23:07:00,61.0,0.0,29.86,NNE,22,0.0,0.0,0,0.00,,CLR,0.00,VWS V13.01,2013-09-14 06:07:00,
2013-09-13 23:12:00,61.1,0.0,29.86,NNE,22,0.0,0.0,0,0.00,,CLR,0.00,VWS V13.01,2013-09-14 06:12:00,
2013-09-13 23:17:00,61.1,0.0,29.86,NNE,22,0.0,0.0,0,0.00,,CLR,0.00,VWS V13.01,2013-09-14 06:17:00,
2013-09-13 23:22:00,61.2,0.0,29.86,NNE,22,0.0,0.0,0,0.00,,CLR,0.00,VWS V13.01,2013-09-14 06:22:00,
2013-09-13 23:27:00,61.2,0.0,29.86,NNE,22,0.0,0.0,0,0.00,,CLR,0.00,VWS V13.01,2013-09-14 06:27:00,
2013-09-13 23:32:00,61.3,0.0,29.86,NNE,22,0.0,0.0,0,0.00,,CLR,0.00,VWS V13.01,2013-09-14 06:32:00,
2013-09-13 23:37:00,61.3,0.0,29.86,NNE,22,0.0,0.0,0,0.00,,CLR,0.00,VWS V13.01,2013-09-14 06:37:00,
2013-09-13 23:42:00,61.3,0.0,29.86,NNE,24,0.0,2.0,0,0.00,,CLR,0.00,VWS V13.01,2013-09-14 06:42:00,
2013-09-13 23:48:00,61.4,0.0,29.86,NNE,24,2.0,2.0,0,0.00,,CLR,0.00,VWS V13.01,2013-09-14 06:48:00,
2013-09-13 23:53:00,61.4,0.0,29.86,NNE,26,0.0,3.0,0,0.00,,CLR,0.00,VWS V13.01,2013-09-14 06:53:00,
2013-09-13 23:58:00,61.4,0.0,29.86,NNE,26,0.0,3.0,0,0.00,,CLR,0.00,VWS V13.01,2013-09-14 06:58:00,